Location: Mouss�
(47.9236°N, 1.2701°W)
Time: 11:14:24
(UTC+00:00)

OBJECT-B - Pass Details

Date: 03 March 2021
Orbit: 414 x 427 km, 97.0° (Epoch: 09 April)

Event Time Altitude Azimuth Distance (km) Brightness Sun altitude
Exits shadow 19:37:55 41° 38° (NE) 624 1.3 -18.3°
Drops below altitude 10° 19:40:28 10° 359° (N) 1,515 3.7 -18.8°
Sets 19:42:30 0° 353° (N) 2,382 4.8 -19.1°
